Location: Spring Creek
(38.2870°N, 100.2160°W)
Time: 02:00:18
(UTC+00:00)

Cosmos 304 Rocket - Pass Details

Date: 08 May 2021
Orbit: 678 x 688 km, 74.0° (Epoch: 22 June)

Event Time Altitude Azimuth Distance (km) Brightness Sun altitude
Exits shadow 10:03:00 29° 225° (SW) 1,229 4.5 -16.5°
Maximum altitude 10:05:13 56° 291° (WNW) 807 3.9 -16.2°
Drops below altitude 10° 10:09:56 10° 10° (N) 2,129 7.0 -15.5°
Sets 10:12:18 0° 14° (NNE) 3,050 8.0 -15.1°
